Location: Eenumerhoogte
(53.3420°N, 6.7843°E)
Time: 22:39:47
(UTC+00:00)

Cosmos 1833 - Pass Details

Date: 15 May 2026
Orbit: 833 x 865 km, 70.9° (Epoch: 10 June)

Event Time Altitude Azimuth Distance (km) Brightness Sun altitude
Exits shadow 21:44:10 - 201° (SSW) 2,580 6.3 -14.1°
Reaches altitude 10° 21:44:29 10° 200° (SSW) 2,458 6.2 -14.2°
Maximum altitude 21:50:05 72° 118° (ESE) 885 4.1 -14.5°
Drops below altitude 10° 21:55:42 10° 35° (NE) 2,457 7.0 -14.9°
Sets 21:58:09 0° 33° (NNE) 3,393 7.8 -15.0°
